Weather History for Land O' Lakes, WI

Change the Weather History Date:

Saturday, October 1, 2011

  Actual Average (KEGV) Record (KEGV)
Temperature  
Mean Temperature 41 °F -  
Max Temperature 57 °F 59 °F 77 °F (2005)
Min Temperature 25 °F 34 °F 26 °F (1997)
Degree Days  
Heating Degree Days 24    
Moisture  
Dew Point 30 °F    
Average Humidity 73    
Maximum Humidity 98    
Minimum Humidity 29    
Precipitation  
Precipitation 0.00 in - - ()
Sea Level Pressure  
Sea Level Pressure 30.31 in    
Wind  
Wind Speed 1 mph (East)    
Max Wind Speed 5 mph    
Max Gust Speed -    
Visibility 10 miles    
Events      
Averages and records for this station are not official NWS values.
T = Trace of Precipitation, MM = Missing Value Source: NWS Daily Summary

Daily Weather History Graph

Daily Weather History Graph

Search for Another Location

Airport:

Trip Planner

Search our weather history database for the weather conditions in past years. The results will help you decide how hot, cold, wet, or windy it might be!

Date:

Astronomy

Oct. 01, 2011 Rise Set
Actual Time 6:54 AM CDT 6:37 PM CDT
Civil Twilight 6:25 AM CDT 7:07 PM CDT
Nautical Twilight 5:50 AM CDT 7:41 PM CDT
Astronomical Twilight 5:14 AM CDT 8:17 PM CDT
Moon 12:20 PM CDT (10/1) 9:14 PM CDT (10/1)
Length of Visible Light 12h 42m
Length of Day
11h 42m
Waxing Crescent, 24% of the Moon is Illuminated
Oct 1
Waxing Crescent
Oct 3
First Quarter
Oct 11
Full
Oct 19
Last Quarter
Oct 26
New

Hourly Weather History & Observations

Time (CDT) Temp. Windchill Dew Point Humidity Pressure Visibility Wind Dir Wind Speed Gust Speed Precip Events Conditions
12:15 AM 33.4 °F - 32.2 °F 95% 30.29 in 10.0 mi Calm Calm - N/A   Clear
12:35 AM 32.4 °F - 30.6 °F 93% 30.29 in 10.0 mi Calm Calm - N/A   Clear
12:55 AM 31.1 °F - 30.0 °F 96% 30.28 in 10.0 mi Calm Calm - N/A   Clear
1:15 AM 30.6 °F - 29.7 °F 96% 30.29 in 10.0 mi Calm Calm - N/A   Clear
1:35 AM 31.1 °F - 30.4 °F 97% 30.29 in 10.0 mi Calm Calm - N/A   Clear
1:55 AM 31.1 °F - 30.2 °F 96% 30.29 in 10.0 mi Calm Calm - N/A   Clear
2:15 AM 32.2 °F - 31.3 °F 96% 30.29 in 10.0 mi Calm Calm - N/A   Clear
2:35 AM 31.6 °F - 30.2 °F 94% 30.29 in 10.0 mi Calm Calm - N/A   Clear
2:55 AM 29.5 °F - 28.4 °F 96% 30.29 in 10.0 mi Calm Calm - N/A   Clear
3:15 AM 29.1 °F - 28.4 °F 97% 30.28 in 10.0 mi Calm Calm - N/A   Clear
3:35 AM 29.1 °F - 28.4 °F 97% 30.29 in 10.0 mi Calm Calm - N/A   Clear
4:15 AM 28.2 °F - 27.3 °F 96% 30.30 in 10.0 mi Calm Calm - N/A   Clear
4:35 AM 27.5 °F - 26.6 °F 96% 30.31 in 10.0 mi Calm Calm - N/A   Clear
4:55 AM 27.9 °F - 27.1 °F 97% 30.31 in 10.0 mi Calm Calm - N/A   Clear
5:15 AM 27.1 °F - 26.2 °F 96% 30.31 in 10.0 mi Calm Calm - N/A   Clear
5:35 AM 26.4 °F - 25.7 °F 97% 30.31 in 10.0 mi Calm Calm - N/A   Clear
5:55 AM 26.8 °F - 25.9 °F 96% 30.32 in 10.0 mi Calm Calm - N/A   Clear
6:15 AM 26.1 °F - 25.2 °F 96% 30.32 in 10.0 mi Calm Calm - N/A   Clear
6:35 AM 25.9 °F - 25.0 °F 96% 30.33 in 10.0 mi Calm Calm - N/A   Clear
7:15 AM 25.5 °F - 24.4 °F 96% 30.36 in 10.0 mi Calm Calm - N/A   Clear
7:35 AM 26.1 °F - 25.0 °F 96% 30.36 in 10.0 mi Calm Calm - N/A   Clear
7:55 AM 27.7 °F - 26.8 °F 96% 30.36 in 10.0 mi Calm Calm - N/A   Clear
8:15 AM 30.4 °F - 29.7 °F 97% 30.36 in 10.0 mi Calm Calm - N/A   Clear
8:35 AM 32.5 °F - 31.8 °F 97% 30.36 in 10.0 mi Calm Calm - N/A   Clear
8:55 AM 35.2 °F - 33.4 °F 93% 30.37 in 10.0 mi Calm Calm - N/A   Clear
9:15 AM 37.9 °F - 35.1 °F 89% 30.37 in 10.0 mi Calm Calm - N/A   Clear
9:35 AM 40.3 °F 38.2 °F 35.6 °F 83% 30.38 in 10.0 mi East 3.5 mph - N/A   Clear
9:55 AM 42.1 °F 40.2 °F 35.1 °F 76% 30.38 in 10.0 mi SE 3.5 mph - N/A   Clear
10:15 AM 43.0 °F 41.3 °F 34.7 °F 73% 30.38 in 10.0 mi SE 3.5 mph - N/A   Clear
10:35 AM 43.7 °F 42.1 °F 34.7 °F 71% 30.38 in 10.0 mi ESE 3.5 mph - N/A   Clear
10:55 AM 44.4 °F 42.9 °F 34.5 °F 68% 30.38 in 10.0 mi East 3.5 mph - N/A   Clear
11:15 AM 45.5 °F - 34.0 °F 64% 30.38 in 10.0 mi Calm Calm - N/A   Clear
11:35 AM 46.9 °F - 34.7 °F 62% 30.38 in 10.0 mi NNW 3.5 mph - N/A   Clear
11:55 AM 47.8 °F - 33.8 °F 58% 30.37 in 10.0 mi Calm Calm - N/A   Clear
12:15 PM 48.6 °F - 32.2 °F 53% 30.36 in 10.0 mi East 4.6 mph - N/A   Clear
12:35 PM 50.2 °F - 30.7 °F 47% 30.36 in 10.0 mi NNE 3.5 mph - N/A   Clear
12:55 PM 51.3 °F - 29.1 °F 43% 30.35 in 10.0 mi Calm Calm - N/A   Clear
1:15 PM 52.5 °F - 25.9 °F 36% 30.34 in 10.0 mi Calm Calm - N/A   Clear
1:35 PM 53.1 °F - 21.7 °F 29% 30.33 in 10.0 mi Calm Calm - N/A   Clear
1:55 PM 53.8 °F - 23.4 °F 31% 30.32 in 10.0 mi East 3.5 mph - N/A   Clear
2:15 PM 54.9 °F - 26.1 °F 33% 30.32 in 10.0 mi Calm Calm - N/A   Clear
2:35 PM 55.0 °F - 26.1 °F 33% 30.31 in 10.0 mi Calm Calm - N/A   Clear
2:55 PM 55.9 °F - 26.6 °F 32% 30.31 in 10.0 mi SSE 3.5 mph - N/A   Clear
3:15 PM 56.8 °F - 27.1 °F 32% 30.30 in 10.0 mi Calm Calm - N/A   Clear
3:35 PM 56.7 °F - 25.9 °F 31% 30.30 in 10.0 mi NNE 3.5 mph - N/A   Clear
3:55 PM 57.2 °F - 26.1 °F 30% 30.29 in 10.0 mi Calm Calm - N/A   Clear
4:15 PM 57.2 °F - 26.4 °F 31% 30.29 in 10.0 mi Calm Calm - N/A   Clear
4:35 PM 57.4 °F - 28.2 °F 33% 30.28 in 10.0 mi WSW 3.5 mph - N/A   Clear
4:55 PM 57.4 °F - 29.1 °F 34% 30.28 in 10.0 mi West 4.6 mph - N/A   Clear
5:15 PM 57.2 °F - 27.9 °F 33% 30.28 in 10.0 mi SSW 4.6 mph - N/A   Clear
5:35 PM 56.7 °F - 27.1 °F 32% 30.28 in 10.0 mi Calm Calm - N/A   Clear
5:55 PM 55.8 °F - 29.1 °F 36% 30.27 in 10.0 mi Calm Calm - N/A   Clear
6:15 PM 54.3 °F - 31.8 °F 42% 30.27 in 10.0 mi Calm Calm - N/A   Clear
6:35 PM 49.3 °F - 35.4 °F 59% 30.27 in 10.0 mi Calm Calm - N/A   Clear
6:55 PM 43.9 °F - 36.9 °F 76% 30.26 in 10.0 mi Calm Calm - N/A   Clear
7:15 PM 41.2 °F - 36.7 °F 84% 30.26 in 10.0 mi Calm Calm - N/A   Clear
7:35 PM 38.7 °F - 36.0 °F 90% 30.26 in 10.0 mi Calm Calm - N/A   Clear
7:55 PM 37.2 °F - 35.1 °F 92% 30.26 in 10.0 mi Calm Calm - N/A   Clear
8:15 PM 36.0 °F - 34.5 °F 94% 30.26 in 10.0 mi Calm Calm - N/A   Clear
8:35 PM 34.3 °F - 33.3 °F 96% 30.26 in 10.0 mi Calm Calm - N/A   Clear
8:55 PM 33.3 °F - 32.4 °F 96% 30.26 in 10.0 mi Calm Calm - N/A   Clear
9:15 PM 32.5 °F - 31.8 °F 97% 30.26 in 10.0 mi Calm Calm - N/A   Clear
9:35 PM 31.8 °F - 31.3 °F 98% 30.26 in 7.0 mi Calm Calm - N/A   Clear
9:55 PM 31.5 °F - 30.9 °F 98% 30.26 in 10.0 mi Calm Calm - N/A   Clear
10:15 PM 30.9 °F - 30.2 °F 97% 30.26 in 10.0 mi Calm Calm - N/A   Clear
10:35 PM 30.7 °F - 30.0 °F 97% 30.26 in 10.0 mi Calm Calm - N/A   Clear
10:55 PM 30.2 °F - 29.7 °F 98% 30.26 in 10.0 mi Calm Calm - N/A   Clear
11:15 PM 30.2 °F - 29.7 °F 98% 30.26 in 10.0 mi Calm Calm - N/A   Clear
11:35 PM 29.8 °F - 29.1 °F 97% 30.27 in 10.0 mi Calm Calm - N/A   Clear
11:55 PM 29.8 °F - 29.1 °F 97% 30.27 in 10.0 mi Calm Calm - N/A   Clear